User: anonymous   Login
Location: Unspecified
(0.0000°N, 0.0000°E)
Time: 12:22:46
(UTC+00:00)
Language:

USA 37 - Orbit

View from above orbital plane
View from above orbital plane
View from above satellite
View from above satellite

Ground track
Ground track

The orbit data is extracted from the following two-line orbital elements,

1 19976U 89035A   17107.18663394 0.00000000  00000-0  00000-0 0    06
2 19976   8.0071   8.4548 0976994 276.8125  72.1893  1.00270000    04
Epoch (UTC): 17 April 2017 04:28:45
Eccentricity: 0.0976994
inclination: 8.0071°
perigee height: 31667 km
apogee height: 39906 km
right ascension of ascending node: 8.4548°
argument of perigee: 276.8125°
revolutions per day: 1.00270000
mean anomaly at epoch: 72.1893°
orbit number at epoch: 0

The dashed part of the orbit path shows where the satellite is in the earth's shadow,  

DLR